Lamoni, IA

1:19 PM CDT on June 25, 2017 (GMT -0500)
Lamoni Municipal

Weather History for KLWD - November, 2012

Change the Weather History Date:

Thursday, November 29, 2012

  Actual Average Record
Temperature  
Mean Temperature 43 °F 33 °F  
Max Temperature 53 °F 41 °F 65 °F (2014)
Min Temperature 32 °F 24 °F -2 °F (1976)
Degree Days  
Heating Degree Days 22 32  
Month to date heating degree days 638 730  
Since 1 July heating degree days 1173 1214  
Cooling Degree Days 0 0  
Month to date cooling degree days 1 0  
Year to date cooling degree days 1312 946  
Moisture  
Dew Point 32 °F    
Average Humidity 64    
Maximum Humidity 78    
Minimum Humidity 50    
Precipitation  
Precipitation 0.00 in 0.05 in 2.99 in (1975)
Month to date precipitation 1.65 2.14  
Sea Level Pressure  
Sea Level Pressure 30.06 in    
Wind  
Wind Speed 8 mph (South)    
Max Wind Speed 13 mph    
Max Gust Speed 17 mph    
Visibility 10 miles    
Events      
T = Trace of Precipitation, MM = Missing Value Source: NWS Daily Summary

Daily Weather History Graph

Daily Weather History Graph

Search for Another Location

Airport or City:

Trip Planner

Search our weather history database for the weather conditions in past years. The results will help you decide how hot, cold, wet, or windy it might be!

Date:

Astronomy

Nov. 29, 2012 Rise Set
Actual Time 7:18 AM CST 4:49 PM CST
Civil Twilight 6:48 AM CST 5:19 PM CST
Nautical Twilight 6:14 AM CST 5:53 PM CST
Astronomical Twilight 5:41 AM CST 6:26 PM CST
Moon 5:53 PM CST (11/29) 8:05 AM CST (11/29)
Length of Visible Light 10h 31m
Length of Day
9h 31m
Full, 99% of the Moon is Illuminated
Nov 29
Full
Dec 6
Last Quarter
Dec 13
New
Dec 19
First Quarter
Dec 28
Full

Hourly Weather History & Observations

Time (CST) Temp. Windchill Dew Point Humidity Pressure Visibility Wind Dir Wind Speed Gust Speed Precip Events Conditions
12:53 AM 35.1 °F 27.9 °F 27.0 °F 72% 30.17 in 10.0 mi South 9.2 mph - N/A   Clear
1:53 AM 35.1 °F 29.3 °F 27.0 °F 72% 30.17 in 10.0 mi South 6.9 mph - N/A   Clear
2:53 AM 34.0 °F 27.2 °F 27.0 °F 75% 30.15 in 10.0 mi South 8.1 mph - N/A   Clear
3:53 AM 33.1 °F 26.1 °F 27.0 °F 78% 30.14 in 10.0 mi South 8.1 mph - N/A   Clear
4:53 AM 33.1 °F 25.5 °F 27.0 °F 78% 30.12 in 10.0 mi South 9.2 mph - N/A   Clear
5:53 AM 33.1 °F 26.1 °F 27.0 °F 78% 30.12 in 10.0 mi South 8.1 mph - N/A   Clear
6:53 AM 32.0 °F 25.6 °F 27.0 °F 82% 30.11 in 10.0 mi SSE 6.9 mph - N/A   Clear
7:53 AM 33.1 °F 26.9 °F 27.0 °F 78% 30.10 in 10.0 mi South 6.9 mph - N/A   Clear
8:53 AM 36.0 °F 28.5 °F 28.9 °F 76% 30.10 in 10.0 mi South 10.4 mph - N/A   Clear
10:53 AM 45.0 °F 39.7 °F 32.0 °F 60% 30.08 in 10.0 mi South 10.4 mph - N/A   Clear
11:53 AM 48.9 °F - 34.0 °F 56% 30.05 in 10.0 mi SSW 12.7 mph - N/A   Clear
12:53 PM 51.1 °F - 35.1 °F 54% 30.02 in 10.0 mi SSW 11.5 mph - N/A   Clear
1:53 PM 51.1 °F - 35.1 °F 54% 30.00 in 10.0 mi South 8.1 mph - N/A   Clear
2:53 PM 53.1 °F - 36.0 °F 52% 29.99 in 10.0 mi SSW 10.4 mph - N/A   Clear
3:53 PM 51.1 °F - 36.0 °F 56% 29.99 in 10.0 mi SSW 9.2 mph - N/A   Clear
4:53 PM 48.9 °F - 36.0 °F 61% 30.00 in 10.0 mi South 4.6 mph - N/A   Clear
5:53 PM 48.0 °F - 36.0 °F 63% 30.00 in 10.0 mi SSE 3.5 mph - N/A   Clear
6:53 PM 46.9 °F - 36.0 °F 66% 30.01 in 10.0 mi South 5.8 mph - N/A   Clear
7:53 PM 46.0 °F 43.1 °F 36.0 °F 68% 30.01 in 10.0 mi SSE 5.8 mph - N/A   Clear
8:53 PM 44.1 °F 40.8 °F 35.1 °F 71% 30.02 in 10.0 mi South 5.8 mph - N/A   Clear
9:53 PM 44.1 °F 40.1 °F 36.0 °F 73% 30.00 in 10.0 mi SSE 6.9 mph - N/A   Clear
10:53 PM 42.1 °F 39.2 °F 35.1 °F 76% 30.00 in 10.0 mi SSE 4.6 mph - N/A   Clear
11:53 PM 39.9 °F 35.8 °F 34.0 °F 79% 29.99 in 10.0 mi South 5.8 mph - N/A   Clear